Regional Weather Roundup
Issued by NWS

Home | Current Version | Previous Version | Text Only | Print | Product List | Glossary On
Versions: 1 2 3 4 5 6 7 8 9 10 11 12 13 14 15 16 17 18 19 20 21 22 23 24 25 26 27 28 29 30 31 32 33 34 35 36 37 38 39 40 41 42 43 44 45 46 47 48 49 50
000
ASUS44 KMEG 212110
RWRTN
TENNESSEE HOURLY STATE WEATHER ROUNDUP
NATIONAL WEATHER SERVICE MEMPHIS TN
400 PM CDT THU SEP 21 2017

TNZ002-004-019-021-049-052-054-088>092-212200-
WEST TENNESSEE

CITY           SKY/WX    TMP DP  RH WIND       PRES   REMARKS
MEMPHIS INTL   MOSUNNY   90  69  50 S3        29.99F HX  94
NWS MEMPHIS      N/A     92 N/A N/A MISG        N/A
JACKSON        SUNNY     91  71  51 W7        30.00F HX  97
DYERSBURG      MOSUNNY   91  70  49 W5        30.00F HX  96
SOMERVILLE     SUNNY     91  70  49 CALM      29.99F HX  97
COVINGTON      MOSUNNY   91  68  46 SW6G12    29.99F HX  95
BOLIVAR        SUNNY     90  70  51 SW3       30.00S HX  95
PARIS          SUNNY     88  72  58 CALM      30.00F HX  94
HUNTINGDON     MOSUNNY   91  72  52 CALM      29.99F HX  98
LEXINGTON      MOSUNNY   90  72  55 NW7       29.99F HX  96
SAVANNAH       PTSUNNY   91  70  49 W5        29.99F HX  97
$$

TNZ008-025-027-028-033-062-065-066-212200-
NORTH MIDDLE TENNESSEE

CITY           SKY/WX    TMP DP  RH WIND       PRES   REMARKS
NASHVILLE      MOSUNNY   89  67  47 E5        30.02F HX  92
PORTLAND       SUNNY     88  68  51 E7        30.02F HX  91
CLARKSVILLE    PTSUNNY   87  68  52 SE12      30.01F HX  90
SMYRNA         MOSUNNY   88  72  58 CALM      30.04F HX  94
COOKEVILLE     MOSUNNY   82  72  69 CALM      30.03F
GALLATIN       SUNNY     88  68  51 CALM      30.04F HX  91
CROSSVILLE     SUNNY     81  64  56 NE10      30.09F
$$

TNZ061-075-076-078-094-096-097-212200-
SOUTH MIDDLE TENNESSEE

CITY           SKY/WX    TMP DP  RH WIND       PRES   REMARKS
FAYETTEVILLE   SUNNY     84  70  61 VRB5      30.03F
TULLAHOMA      SUNNY     84  66  54 CALM      30.05F
WINCHESTER     MOSUNNY   84  70  61 CALM      30.04F
MCMINNVILLE    SUNNY     88  66  48 E6        30.04F HX  90
COLUMBIA       SUNNY     84 N/A N/A CALM      30.01F
SHELBYVILLE    SUNNY     84  70  61 W3        30.03F
$$

TNZ017-018-042-046-047-212200-
NORTHEAST TENNESSEE

CITY           SKY/WX    TMP DP  RH WIND       PRES   REMARKS
TRI CITIES     MOSUNNY   85  63  47 VRB5      30.07F
ELIZABETHTON   SUNNY     84  61  45 N5        30.07S
$$

TNZ012-013-036-069-073-074-212200-
CENTRAL EAST TENNESSEE

CITY           SKY/WX    TMP DP  RH WIND       PRES   REMARKS
KNOXVILLE      MOSUNNY   88  59  37 NE10      30.02F
OAK RIDGE      SUNNY     87  60  40 VRB6      30.05F
DOWNTOWN KNOXV SUNNY     84  68  58 VRB3      30.02F
GATLINBURG     MOSUNNY   86  59  39 N7        30.02F
MORRISTOWN     SUNNY     84  61  45 NE12      30.05S
JACKSBORO      SUNNY     82  64  54 NE5       30.09F
$$

TNZ083-085-099-212200-
SOUTHEAST TENNESSEE

CITY           SKY/WX    TMP DP  RH WIND       PRES   REMARKS
CHATTANOOGA    CLOUDY    88  66  48 N8        30.01F HX  90
DAYTON         CLEAR     84  72  65 N12       30.01F
$$

SKY/WX REPORTED AS FAIR MEANS FEW OR NO CLOUDS BELOW
12 THOUSAND FEET.





USA.gov is the U.S. government's official web portal to all federal, state and local government web resources and services.